Dewpoint
-1 -1 0 -4 -4 -4 -3 -2 -2 -3 -3 -2 -2 -2 -0 6 6 5 6 6 8 7 8 8 9 8 8 8 8 10 10 9 8 5 5 5 5 8 7 7 7 8 8 6
-1 0 -3 -3 -3 -2 -3 -1 -1 -3 -2 -1 -2 -2 -3 4 6 6 6 5 5 9 7 7 8 9 9 9 10 10 11 10 10 9 7 9 8 8 8 8 8 8 7 6
-2 -2 -3 -2 -1 -1 -2 -1 -1 -2 -1 -1 -1 -2 -1 0 4 6 6 6 6 5 8 7 8 8 9 8 9 10 10 11 10 11 8 10 10 8 8 8 9 7 6 6
-3 -4 -2 -1 -2 -1 0 -2 -2 -1 0 -1 -2 -2 -4 -2 2 4 6 7 6 7 6 7 7 8 9 9 9 9 9 11 11 10 10 7 9 9 9 9 8 6 6 4
-2 -2 -1 -1 -1 -1 -1 -1 -1 -0 0 -0 -1 -3 -4 -2 -2 -1 2 5 7 7 7 6 7 7 8 9 10 10 10 11 11 10 10 9 10 10 9 9 8 6 5 4
-4 -2 -1 -2 -2 -1 -1 0 1 1 1 2 -1 -1 -5 -5 -4 -3 -2 0 5 7 7 8 7 7 8 9 11 10 10 10 9 9 9 8 9 7 9 9 9 7 5 5
-2 -2 -3 -2 -1 -1 -0 1 3 4 3 2 1 0 -3 -5 -4 -2 -3 -2 0 4 6 7 7 8 7 9 9 9 9 10 10 9 9 9 7 6 8 9 9 7 6 6
-1 -0 -2 -3 -3 -2 -1 0 2 2 2 0 0 -1 -4 -3 -3 -3 -0 1 1 2 3 7 7 8 8 8 4 3 4 7 7 7 8 8 8 7 5 8 9 7 7 6
-1 -3 -4 -3 -2 -2 2 2 -1 2 4 3 -2 -3 -6 -6 -5 -2 -1 2 3 2 2 4 6 8 9 9 4 2 2 5 6 6 8 8 8 8 8 9 9 8 7 6
-3 -2 -3 -0 -1 -0 -0 -1 2 2 3 2 -2 -2 -3 -5 -5 -2 -4 -4 3 3 3 4 5 7 8 9 10 5 5 3 5 6 8 7 8 8 8 10 9 7 6 5
-4 -2 2 1 1 -1 2 1 1 0 1 2 2 -1 -5 -6 -5 -4 -4 -1 -0 4 4 4 4 6 8 9 10 9 7 8 9 7 7 8 9 9 10 9 9 8 6 5
-4 -2 -1 -1 -2 -2 -2 -1 0 2 1 2 3 0 -5 -5 -4 -3 -3 -2 0 2 5 5 6 7 8 9 10 9 9 9 9 9 9 9 10 9 10 9 8 8 6 5
-2 -1 1 -1 -1 -0 0 -1 -0 0 2 1 5 1 -3 -3 -3 -3 -3 -3 -1 1 3 6 7 8 8 9 9 9 10 9 6 8 9 8 8 8 9 8 8 6 5 4
-2 -2 -1 0 -3 -5 -1 -3 -2 -1 3 -1 -1 -2 -4 -4 -3 -4 -4 -3 -1 -1 1 4 7 9 9 10 10 10 10 8 7 9 7 8 8 6 7 8 4 5 3 4
-2 -1 -2 -4 -6 -6 -5 -5 -3 -1 -2 -1 -1 -3 -5 -4 -4 -4 -4 -2 -3 -3 -2 2 5 8 10 10 11 10 8 7 9 9 9 8 8 8 6 4 4 3 3 -0
-1 -1 -1 -0 -3 -3 -3 -3 -4 -2 -2 -2 -1 -3 -5 -5 -4 -3 -3 -3 -2 -2 -1 0 5 8 9 10 9 9 9 9 8 8 8 8 7 5 4 5 4 1 0 1
2 0 1 1 0 0 4 1 -2 -2 -1 -1 -1 -4 -5 -4 -3 -3 -2 -0 1 3 4 4 6 8 9 9 8 8 8 8 8 8 7 5 3 4 4 1 -1 -2 -2 -3
3 3 3 3 5 9 -1 -2 -3 -2 -2 -2 -2 -3 -4 -5 -2 -0 0 2 5 5 6 6 7 8 8 8 7 7 6 5 7 5 4 2 3 3 -3 -4 -3 -3 -1 -2
2 3 5 10 4 -1 -1 -2 -1 -0 -1 -4 -3 -4 -6 -3 -1 0 1 2 4 5 5 6 6 7 7 6 6 6 6 6 5 3 3 3 -3 -4 -3 -3 0 -2 -3 -4
2 3 5 5 10 10 -0 -3 -3 -3 2 -4 -5 -3 -3 -0 2 -2 1 2 4 3 4 4 5 5 5 5 4 5 5 4 3 3 -2 -4 -3 -4 -1 -2 -3 -5 -9 -11
6 5 8 6 10 3 -0 -2 -3 2 2 -3 -4 -4 -1 1 -0 1 1 2 2 2 3 3 3 3 3 2 1 -0 1 2 -1 -3 -4 -4 -3 -3 -3 -6 -12 -14 -8 -9
6 7 9 6 11 9 -1 -3 0 -1 0 -2 -2 -1 0 1 -2 1 1 1 1 1 2 1 1 1 -0 -1 0 -1 -2 -3 -4 -4 -4 -4 -2 -3 -11 -14 -13 -12 -11 -15
6 4 5 4 3 2 -2 -2 -2 -0 -2 -1 -1 0 2 0 -1 -0 -0 0 0 -0 -0 -1 -1 -1 -2 -2 -2 -3 -4 -4 -4 -5 -3 -3 -11 -14 -14 -14 -16 -21 -25 -27
2 3 5 4 0 1 1 -1 0 -1 -1 -0 0 1 1 -0 -1 -1 -1 -1 -1 -1 -2 -2 -2 -3 -4 -4 -4 -4 -4 -4 -2 -5 -12 -13 -14 -15 -20 -24 -27 -31 -31 -28
1 2 2 2 1 2 2 2 1 0 -2 -2 -2 1 0 -1 -1 -2 -2 -2 -2 -3 -3 -3 -3 -4 -4 -5 -5 -4 -2 -4 -11 -13 -15 -17 -22 -24 -28 -32 -34 -32 -27 -32
2 2 5 5 1 2 -1 1 0 -0 -1 -1 -2 -1 -0 -1 -2 -3 -3 -2 -3 -4 -4 -4 -4 -4 -4 -4 -3 -4 -10 -12 -14 -19 -22 -24 -28 -31 -34 -30 -19 -29 -29 -31
Wind_Speed
8 8 10 12 12 8 9 7 7 6 3 7 8 10 8 14 13 11 12 11 13 16 19 22 23 25 26 28 25 21 16 14 14 17 18 20 23 22 20 19 19 17 15 16
6 12 4 3 5 8 9 9 12 7 2 4 8 9 6 14 16 15 15 15 16 19 22 26 26 26 28 27 24 21 18 17 16 15 17 16 18 21 21 20 20 18 18 18
13 1 4 9 8 10 10 11 8 8 5 8 9 11 9 10 14 16 16 16 18 21 26 27 29 29 28 28 27 23 20 19 19 17 16 15 17 18 20 21 21 20 20 18
11 8 8 10 10 10 10 8 10 7 6 5 3 3 7 10 13 15 19 22 22 24 25 28 30 31 31 29 26 25 22 20 19 21 20 21 18 17 18 21 20 22 21 22
12 9 11 12 12 9 7 3 7 6 7 6 9 6 7 4 10 14 22 25 26 26 28 30 32 32 30 28 27 24 22 22 21 24 24 23 19 17 23 19 18 23 22 22
12 3 6 4 6 9 2 6 4 5 5 7 2 5 2 5 3 3 5 22 27 28 29 30 30 29 30 30 27 27 26 25 26 25 25 26 22 24 24 22 22 26 25 25
15 14 6 6 9 8 9 8 6 6 6 5 4 5 9 8 4 5 8 7 17 28 28 29 29 30 29 30 30 29 28 26 26 27 28 26 25 26 25 22 24 23 24 26
15 14 14 11 13 8 14 11 5 6 5 4 3 5 2 3 5 9 8 8 10 17 28 29 31 30 29 30 31 30 29 27 28 29 29 28 26 27 28 23 25 25 24 22
16 15 6 7 5 10 7 8 1 1 1 4 5 7 11 4 4 6 4 4 6 11 19 25 28 29 28 29 33 33 30 26 29 29 27 25 28 28 28 25 25 21 19 19
7 11 7 7 7 3 5 11 5 4 5 7 6 8 7 5 1 1 4 5 2 2 9 15 21 26 27 27 28 31 27 26 23 27 30 27 26 27 25 27 25 21 22 26
11 7 6 8 11 12 6 7 4 3 3 4 4 4 3 6 3 5 4 5 5 2 4 9 13 18 21 22 24 27 28 24 21 24 24 22 21 23 25 27 30 28 24 24
19 8 9 12 4 5 10 12 13 6 7 3 4 8 7 10 5 6 8 9 5 4 5 8 11 13 17 20 21 22 24 24 22 19 18 17 20 24 27 27 24 24 20 16
16 10 9 9 7 5 8 11 12 7 3 11 9 8 3 5 7 10 10 7 9 7 7 8 11 13 14 17 19 20 20 21 20 20 22 20 17 15 16 19 21 19 12 17
23 14 17 14 14 10 13 16 15 15 10 12 13 17 13 13 14 13 9 6 8 8 8 10 11 12 14 15 17 18 17 21 22 20 18 19 20 22 25 19 13 14 12 20
12 16 17 17 15 12 16 14 16 17 18 17 14 17 13 14 15 15 8 5 6 9 8 9 12 13 13 14 15 18 21 23 21 20 22 24 19 16 17 5 3 12 16 10
6 11 11 13 11 12 15 16 15 17 16 14 17 18 14 18 13 12 11 8 7 5 7 8 10 13 14 15 16 19 21 20 18 17 14 17 18 18 16 9 12 12 10 11
3 9 6 12 7 6 8 15 15 15 13 15 16 17 14 14 14 17 11 8 7 5 4 4 8 12 13 14 16 17 16 16 16 15 17 18 18 19 12 13 12 11 5 10
4 9 5 6 4 8 9 3 15 18 17 16 16 18 16 15 9 5 5 4 1 3 5 7 8 10 11 13 14 15 16 17 18 19 19 20 18 16 14 11 6 5 10 12
13 7 4 5 10 10 5 5 9 11 16 15 15 18 17 8 7 8 6 7 6 7 9 10 11 13 14 14 15 16 17 17 19 20 20 18 17 15 11 7 9 8 7 7
7 9 7 4 6 8 5 12 13 5 14 11 12 12 8 11 7 4 12 12 11 11 11 13 15 16 17 18 18 18 20 21 21 21 21 18 14 8 5 6 6 6 7 8
4 3 10 10 5 5 4 7 13 9 13 2 9 9 13 12 1 15 17 15 13 13 14 16 16 17 18 20 21 23 23 24 24 23 20 14 8 7 7 6 6 7 7 10
6 6 4 5 4 9 12 11 10 13 4 7 9 11 16 12 11 15 15 16 15 16 17 16 18 19 18 20 22 23 22 23 22 19 14 11 7 6 5 5 7 8 11 15
9 9 5 8 6 3 25 16 23 7 9 9 12 12 17 19 17 19 18 18 17 18 18 19 20 22 21 19 19 21 19 17 16 14 10 7 6 5 6 7 10 12 13 15
8 5 6 5 9 11 12 19 9 9 7 4 7 13 20 23 22 22 21 20 20 20 20 21 23 23 23 20 19 17 17 15 10 8 8 7 6 6 8 10 11 11 11 12
12 11 12 12 12 7 11 18 18 16 13 11 11 14 20 23 24 24 24 23 22 22 22 21 22 22 22 21 20 17 14 11 10 8 7 6 6 7 8 9 8 8 10 12
9 10 8 7 17 12 12 9 18 19 19 16 17 16 19 23 26 26 25 24 25 25 24 23 22 23 22 20 16 13 12 10 8 7 6 6 7 7 6 6 7 10 9 11
Wind_Direction
192 225 225 221 214 278 279 257 261 265 335 276 270 270 189 194 205 179 177 167 165 164 168 175 174 174 177 185 191 200 204 201 204 200 198 197 200 204 207 212 215 210 197 197
197 230 234 239 192 224 221 247 273 279 163 286 275 268 198 190 206 206 195 181 171 174 182 187 188 187 191 196 200 207 209 211 208 201 196 199 203 210 213 216 217 204 199 205
230 118 175 198 191 220 238 259 261 260 312 245 271 245 207 200 207 212 216 208 198 190 195 198 201 203 205 208 210 211 215 219 217 206 199 201 200 217 219 219 210 198 205 211
229 228 205 216 236 228 246 234 247 248 256 245 222 268 191 198 207 216 220 213 208 204 203 205 206 208 211 213 215 220 224 223 219 209 209 217 218 218 220 219 209 204 209 212
205 200 207 226 232 204 253 187 217 248 242 272 176 252 116 177 227 226 217 220 215 209 208 209 212 213 214 214 216 220 218 218 214 220 222 222 216 215 229 222 220 214 216 218
217 159 223 249 190 201 120 182 200 235 228 237 187 265 226 182 289 296 239 220 220 216 214 213 214 214 215 215 216 220 219 222 225 228 226 227 218 234 236 231 222 218 217 224
201 212 205 199 186 170 201 223 212 212 208 242 116 232 272 302 292 274 287 262 228 223 221 216 213 212 211 210 215 219 221 220 224 229 231 227 237 241 242 241 233 212 217 225
203 209 208 193 233 215 202 225 244 242 216 206 163 245 219 357 287 300 281 267 244 228 223 220 218 215 212 211 217 220 225 223 227 234 238 236 235 240 241 244 232 221 227 225
201 214 145 205 194 212 163 212 37 215 7 267 253 236 259 259 277 297 296 245 248 232 219 218 217 215 215 212 219 223 225 224 231 239 238 242 241 240 239 238 231 221 216 211
192 212 204 149 174 155 256 143 182 214 227 240 207 245 258 206 157 34 4 18 16 199 204 209 214 215 213 214 214 218 216 224 232 237 239 245 242 239 241 231 224 212 208 220
201 232 150 178 208 191 169 200 230 274 268 255 271 257 177 231 288 280 322 323 344 305 212 206 208 211 213 212 211 215 215 215 221 236 238 241 236 240 235 232 225 223 219 224
198 216 214 207 138 263 259 232 211 233 211 240 284 270 240 250 272 243 274 277 276 257 221 206 203 200 202 207 210 210 212 213 215 227 227 226 221 221 226 232 226 226 218 208
177 207 202 202 196 188 217 209 226 246 262 241 254 270 155 215 249 247 252 261 259 245 219 208 203 201 198 200 203 203 205 210 218 224 221 224 221 231 243 233 222 205 187 218
176 204 214 225 228 216 214 232 220 225 238 253 245 272 271 252 260 257 232 233 240 246 237 221 213 204 197 194 193 192 195 203 219 213 211 201 203 225 226 210 188 177 205 221
199 221 221 233 245 249 239 242 222 227 239 246 251 262 272 278 281 259 250 228 236 258 256 232 214 204 192 182 181 180 199 208 215 200 196 203 211 200 178 177 215 231 226 218
197 219 207 216 222 229 244 247 249 230 244 257 260 269 282 278 277 250 249 260 269 271 269 247 209 195 184 176 171 187 193 197 190 190 200 200 189 176 181 211 226 200 219 263
217 217 201 234 215 221 254 234 224 226 227 236 257 272 288 274 263 252 254 262 281 289 276 220 194 182 176 175 185 180 181 184 178 176 172 171 171 179 190 173 188 207 223 238
231 210 212 222 177 223 247 238 232 237 241 237 257 272 273 277 284 221 235 230 166 104 113 126 140 143 147 152 153 156 152 155 160 158 162 169 179 180 169 176 185 207 265 267
226 200 182 170 215 256 227 191 194 197 243 246 259 274 269 239 227 227 193 167 136 127 119 119 128 132 134 138 141 148 151 152 153 158 165 168 165 166 160 182 275 253 252 258
190 240 226 163 218 224 230 210 202 198 262 265 248 262 222 180 221 192 167 159 147 137 134 135 135 137 141 141 144 146 147 151 158 162 158 154 157 177 236 228 232 245 263 271
162 184 211 214 238 246 190 156 162 210 254 191 211 230 194 204 301 143 161 152 147 142 137 134 132 134 137 138 141 141 146 152 154 156 159 161 185 201 233 243 257 269 277 284
199 193 189 203 206 238 152 143 204 228 209 199 202 202 193 186 162 153 152 150 146 143 137 134 129 128 130 136 141 136 140 150 156 161 163 183 219 240 231 250 274 288 292 295
223 214 245 215 221 163 185 221 223 229 236 204 201 195 182 172 167 161 156 153 149 145 141 138 135 130 129 135 145 136 138 145 158 169 185 210 204 225 253 271 283 291 295 299
222 173 213 222 239 233 225 227 239 227 224 272 242 199 190 177 170 163 159 157 154 150 149 147 143 139 137 140 140 141 150 159 176 185 185 199 223 254 275 285 291 295 296 302
223 181 234 243 264 275 244 240 231 225 239 248 254 210 192 181 172 169 164 163 160 154 150 149 146 142 141 149 156 163 170 175 177 189 206 227 256 272 285 288 293 299 302 310
191 213 206 221 233 226 251 246 239 223 241 239 230 202 190 186 178 170 164 164 161 157 156 153 151 154 156 162 165 167 168 174 187 202 227 253 270 283 294 303 311 307 308 318
Height
1502 1501 1498 1491 1492 1491 1494 1494 1495 1488 1491 1492 1486 1484 1485 1495 1498 1500 1503 1505 1509 1513 1518 1521 1524 1527 1530 1533 1536 1538 1540 1541 1544 1546 1549 1551 1553 1556 1559 1562 1564 1565 1567 1569
1500 1497 1490 1493 1494 1495 1494 1496 1493 1489 1492 1494 1483 1482 1480 1489 1494 1496 1499 1502 1506 1512 1515 1518 1521 1524 1527 1530 1533 1535 1537 1539 1542 1545 1548 1550 1552 1554 1557 1559 1561 1563 1564 1566
1491 1489 1492 1493 1494 1495 1493 1495 1492 1492 1488 1489 1488 1481 1480 1483 1489 1493 1496 1499 1502 1506 1511 1514 1517 1520 1523 1526 1528 1532 1536 1538 1540 1543 1545 1547 1549 1551 1553 1555 1557 1559 1562 1564
1488 1486 1492 1492 1491 1492 1494 1487 1489 1490 1490 1483 1486 1482 1474 1475 1481 1486 1489 1492 1495 1499 1504 1509 1512 1514 1517 1522 1526 1529 1533 1535 1536 1538 1541 1542 1546 1548 1550 1552 1555 1557 1559 1561
1485 1486 1490 1491 1487 1489 1490 1489 1489 1487 1485 1485 1482 1483 1466 1474 1476 1473 1480 1484 1487 1492 1496 1500 1504 1508 1513 1518 1521 1524 1527 1530 1532 1533 1537 1539 1543 1546 1546 1548 1549 1554 1556 1557
1476 1485 1485 1482 1485 1487 1490 1491 1490 1488 1483 1491 1479 1482 1467 1466 1468 1467 1469 1475 1480 1484 1488 1493 1497 1503 1506 1511 1514 1516 1520 1523 1526 1529 1533 1535 1538 1539 1541 1543 1544 1548 1550 1551
1477 1479 1481 1484 1483 1487 1488 1488 1492 1499 1494 1490 1482 1485 1468 1463 1465 1468 1468 1470 1473 1478 1482 1486 1491 1495 1500 1502 1505 1509 1514 1518 1521 1524 1527 1530 1532 1533 1536 1538 1540 1544 1545 1546
1475 1483 1476 1477 1477 1476 1480 1480 1487 1503 1496 1484 1488 1484 1468 1463 1466 1467 1467 1468 1469 1471 1475 1480 1483 1488 1492 1495 1499 1503 1507 1511 1514 1518 1521 1523 1526 1528 1530 1533 1535 1538 1541 1543
1470 1471 1470 1473 1475 1475 1481 1484 1478 1488 1496 1493 1475 1470 1463 1461 1464 1464 1462 1464 1465 1464 1466 1471 1477 1482 1486 1489 1492 1497 1501 1505 1508 1510 1513 1516 1519 1521 1524 1528 1530 1534 1538 1539
1463 1472 1469 1474 1476 1478 1473 1473 1486 1483 1500 1497 1473 1474 1468 1461 1460 1461 1459 1459 1461 1462 1463 1466 1470 1475 1479 1483 1487 1491 1496 1500 1502 1505 1508 1511 1514 1517 1520 1522 1525 1528 1531 1531
1457 1462 1474 1472 1472 1467 1478 1476 1476 1474 1479 1486 1488 1470 1456 1457 1457 1459 1459 1460 1460 1460 1461 1463 1466 1470 1474 1478 1482 1485 1490 1495 1498 1500 1503 1506 1510 1512 1515 1517 1520 1522 1524 1527
1451 1458 1466 1466 1461 1464 1461 1464 1468 1479 1480 1480 1482 1476 1454 1455 1457 1459 1459 1459 1460 1460 1461 1461 1462 1465 1468 1472 1476 1481 1485 1489 1494 1496 1499 1503 1506 1507 1510 1512 1516 1519 1522 1524
1449 1456 1467 1468 1468 1468 1465 1463 1465 1468 1474 1474 1482 1472 1455 1456 1457 1456 1456 1456 1457 1458 1459 1459 1460 1462 1465 1469 1472 1477 1480 1485 1488 1491 1493 1497 1500 1504 1508 1510 1513 1515 1521 1525
1445 1445 1452 1460 1454 1451 1462 1459 1460 1463 1470 1468 1462 1457 1449 1449 1450 1450 1450 1453 1454 1455 1457 1458 1459 1461 1463 1466 1470 1474 1477 1479 1482 1485 1490 1493 1496 1495 1501 1505 1512 1513 1517 1518
1442 1444 1445 1444 1444 1446 1449 1449 1452 1458 1456 1459 1454 1450 1445 1446 1445 1445 1448 1449 1450 1452 1452 1454 1456 1458 1461 1464 1467 1470 1470 1474 1477 1481 1485 1487 1491 1495 1499 1507 1509 1512 1513 1519
1441 1440 1441 1446 1444 1448 1449 1445 1446 1449 1448 1446 1447 1445 1442 1443 1446 1446 1447 1448 1448 1449 1449 1450 1451 1454 1456 1459 1462 1462 1466 1471 1474 1477 1482 1486 1490 1493 1498 1501 1503 1508 1513 1515
1441 1438 1445 1448 1447 1451 1461 1448 1443 1443 1444 1444 1444 1437 1436 1438 1441 1442 1444 1446 1446 1446 1446 1446 1448 1450 1452 1455 1457 1460 1463 1467 1471 1475 1479 1485 1490 1494 1497 1500 1503 1507 1510 1514
1440 1440 1440 1448 1464 1464 1434 1434 1433 1435 1434 1434 1435 1434 1434 1435 1439 1441 1443 1444 1445 1446 1445 1446 1447 1450 1452 1454 1458 1460 1464 1467 1470 1474 1480 1485 1489 1493 1497 1500 1503 1507 1508 1508
1437 1438 1444 1452 1446 1431 1433 1438 1435 1435 1432 1427 1428 1428 1429 1434 1440 1439 1439 1441 1443 1445 1445 1446 1447 1449 1452 1455 1458 1461 1463 1466 1471 1475 1480 1485 1489 1492 1496 1500 1501 1503 1503 1504
1436 1438 1435 1450 1443 1446 1423 1421 1426 1429 1430 1422 1424 1425 1427 1436 1434 1425 1435 1438 1441 1443 1445 1445 1446 1448 1450 1453 1457 1461 1465 1469 1473 1477 1481 1486 1490 1493 1495 1497 1498 1499 1499 1499
1439 1439 1439 1435 1437 1421 1418 1422 1426 1436 1424 1418 1421 1422 1426 1429 1427 1430 1433 1436 1440 1442 1445 1447 1449 1450 1453 1456 1459 1462 1465 1470 1474 1478 1482 1486 1488 1491 1492 1493 1494 1494 1494 1494
1427 1431 1436 1432 1439 1435 1418 1425 1421 1410 1413 1415 1417 1419 1421 1426 1428 1431 1435 1437 1440 1443 1445 1449 1451 1455 1458 1460 1463 1465 1469 1472 1475 1479 1483 1485 1486 1487 1488 1489 1490 1489 1489 1487
1419 1414 1414 1416 1408 1404 1407 1405 1407 1408 1409 1411 1413 1415 1418 1422 1426 1429 1433 1436 1439 1443 1446 1448 1451 1455 1459 1463 1465 1467 1471 1474 1477 1479 1480 1481 1482 1484 1485 1485 1484 1484 1482 1480
1408 1410 1411 1412 1399 1403 1405 1405 1405 1407 1409 1411 1413 1413 1414 1416 1421 1426 1431 1436 1439 1442 1445 1448 1450 1453 1456 1460 1464 1468 1470 1474 1477 1478 1478 1479 1480 1480 1480 1480 1479 1478 1476 1474
1396 1402 1402 1394 1398 1403 1399 1400 1399 1403 1404 1404 1409 1412 1412 1414 1418 1422 1427 1433 1438 1440 1445 1449 1452 1454 1456 1459 1462 1465 1468 1470 1473 1475 1477 1477 1477 1476 1476 1475 1474 1473 1471 1469
1394 1392 1395 1393 1390 1393 1391 1393 1395 1397 1397 1398 1401 1406 1411 1412 1414 1420 1425 1430 1434 1438 1442 1446 1449 1451 1455 1459 1462 1464 1466 1469 1471 1472 1473 1474 1473 1473 1472 1471 1470 1468 1467 1465